Location: Ahstedt
(52.2048°N, 10.1060°E)
Time: 00:44:46
(UTC+00:00)

Cosmos 1758 - Pass Details

Date: 18 January 2026
Orbit: 479 x 500 km, 82.5° (Epoch: 18 February)

Event Time Altitude Azimuth Distance (km) Brightness Sun altitude
Rises 05:30:26 0° 206° (SSW) 2,576 6.6 -16.0°
Reaches altitude 10° 05:32:37 10° 214° (SW) 1,695 5.6 -15.7°
Maximum altitude 05:36:09 41° 286° (WNW) 725 3.4 -15.2°
Drops below altitude 10° 05:39:42 10° 358° (N) 1,696 5.6 -14.6°
Sets 05:41:54 0° 6° (N) 2,579 6.7 -14.3°
